Stafford, VA

9:32 AM EDT on May 29, 2017 (GMT -0400)
Stafford

Weather History for KRMN - October, 2012

Change the Weather History Date:

Monday, October 1, 2012

  Actual Average (KNYG) Record (KNYG)
Temperature  
Mean Temperature 59 °F -  
Max Temperature 69 °F 70 °F 82 °F (1998)
Min Temperature 49 °F 52 °F 46 °F (1997)
Degree Days  
Heating Degree Days 6    
Growing Degree Days 9 (Base 50)    
Moisture  
Dew Point 56 °F    
Average Humidity 69    
Maximum Humidity 96    
Minimum Humidity 54    
Precipitation  
Precipitation 0.01 in - - ()
Sea Level Pressure  
Sea Level Pressure 29.98 in    
Wind  
Wind Speed 1 mph (NE)    
Max Wind Speed 7 mph    
Max Gust Speed -    
Visibility 9 miles    
Events Rain    
Averages and records for this station are not official NWS values.
T = Trace of Precipitation, MM = Missing Value Source: NWS Daily Summary

Daily Weather History Graph

Daily Weather History Graph

Search for Another Location

Airport or City:

Trip Planner

Search our weather history database for the weather conditions in past years. The results will help you decide how hot, cold, wet, or windy it might be!

Date:

Astronomy

Oct. 01, 2012 Rise Set
Actual Time 7:06 AM EDT 6:51 PM EDT
Civil Twilight 6:39 AM EDT 7:18 PM EDT
Nautical Twilight 6:08 AM EDT 7:48 PM EDT
Astronomical Twilight 5:38 AM EDT 8:19 PM EDT
Moon 7:29 PM EDT (10/1) 8:31 AM EDT (10/1)
Length of Visible Light 12h 38m
Length of Day
11h 45m
Full, 98% of the Moon is Illuminated
Oct 1
Full
Oct 8
Last Quarter
Oct 15
New
Oct 21
First Quarter
Oct 29
Full

Hourly Weather History & Observations

Time (EDT) Temp. Dew Point Humidity Pressure Visibility Wind Dir Wind Speed Gust Speed Precip Events Conditions
12:15 AM 52.9 °F - N/A% 29.95 in 10.0 mi Calm Calm - N/A   Clear
12:35 AM 52.9 °F - N/A% 29.95 in 10.0 mi Calm Calm - N/A   Clear
12:55 AM 51.8 °F - N/A% 29.95 in 7.0 mi Calm Calm - N/A   Clear
1:15 AM 51.8 °F - N/A% 29.95 in 10.0 mi Calm Calm - N/A   Clear
1:35 AM 50.9 °F - N/A% 29.96 in 7.0 mi Calm Calm - N/A   Clear
1:55 AM 50.0 °F - N/A% 29.96 in 5.0 mi Calm Calm - N/A   Haze
2:15 AM 50.2 °F - N/A% 29.96 in 7.0 mi Calm Calm - N/A   Clear
2:35 AM 50.0 °F - N/A% 29.96 in 7.0 mi Calm Calm - N/A   Clear
2:55 AM 49.8 °F - N/A% 29.96 in 7.0 mi WNW 3.5 mph - N/A   Clear
3:35 AM 50.0 °F - N/A% 29.95 in 7.0 mi NW 6.9 mph - N/A   Clear
3:55 AM 50.0 °F - N/A% 29.95 in 10.0 mi WNW 3.5 mph - N/A   Clear
4:15 AM 50.4 °F - N/A% 29.95 in 7.0 mi Calm Calm - N/A   Clear
4:35 AM 49.8 °F - N/A% 29.95 in 7.0 mi NW 3.5 mph - N/A   Clear
4:55 AM 49.8 °F - N/A% 29.95 in 7.0 mi Calm Calm - N/A   Clear
5:15 AM 49.3 °F - N/A% 29.96 in 7.0 mi Calm Calm - N/A   Clear
5:55 AM 49.6 °F - N/A% 29.96 in 7.0 mi Calm Calm - N/A   Clear
6:15 AM 50.0 °F - N/A% 29.96 in 10.0 mi Calm Calm - N/A   Clear
6:35 AM 50.0 °F - N/A% 29.97 in 7.0 mi NW 3.5 mph - N/A   Clear
6:55 AM 50.0 °F - N/A% 29.97 in 10.0 mi Calm Calm - 0.01 in   Clear
7:15 AM 50.0 °F - N/A% 29.97 in 4.0 mi NNW 3.5 mph - N/A   Haze
7:35 AM 50.2 °F - N/A% 29.97 in 5.0 mi Calm Calm - N/A   Haze
7:55 AM 51.1 °F - N/A% 29.98 in 5.0 mi South 4.6 mph - N/A   Haze
8:15 AM 52.7 °F - N/A% 29.98 in 10.0 mi Calm Calm - N/A   Clear
8:35 AM 53.6 °F - N/A% 29.99 in 7.0 mi Calm Calm - N/A   Clear
8:55 AM 53.6 °F - N/A% 30.00 in 10.0 mi Calm Calm - N/A   Clear
9:15 AM 54.5 °F - N/A% 30.01 in 10.0 mi Calm Calm - N/A   Clear
9:35 AM 55.6 °F - N/A% 30.02 in 10.0 mi Calm Calm - N/A   Clear
9:55 AM 56.7 °F - N/A% 30.02 in 10.0 mi Calm Calm - N/A   Clear
10:15 AM 58.3 °F - N/A% 30.03 in 10.0 mi Calm Calm - N/A   Clear
10:35 AM 60.1 °F 58.6 °F 95% 30.02 in 10.0 mi Calm Calm - N/A   Clear
10:55 AM 62.8 °F 54.3 °F 74% 30.03 in 10.0 mi Calm Calm - N/A   Clear
11:15 AM 64.2 °F 54.3 °F 70% 30.02 in 10.0 mi Calm Calm - N/A   Clear
11:35 AM 65.3 °F 54.5 °F 68% 30.01 in 10.0 mi ENE 3.5 mph - N/A   Clear
12:15 PM 67.6 °F 54.1 °F 62% 30.01 in 10.0 mi Calm Calm - N/A   Clear
12:35 PM 68.0 °F 54.0 °F 61% 30.01 in 10.0 mi NNE 3.5 mph - N/A   Scattered Clouds
12:55 PM 68.5 °F 53.4 °F 58% 30.00 in 10.0 mi Calm Calm - N/A   Mostly Cloudy
1:15 PM 69.4 °F 53.4 °F 57% 30.00 in 10.0 mi ESE 4.6 mph - N/A   Scattered Clouds
1:35 PM 69.4 °F 53.2 °F 56% 29.99 in 10.0 mi SE 5.8 mph - N/A   Mostly Cloudy
2:15 PM 69.4 °F 52.0 °F 54% 29.98 in 10.0 mi ESE 5.8 mph - N/A   Overcast
2:35 PM 68.0 °F 53.1 °F 59% 29.98 in 10.0 mi ESE 3.5 mph - N/A   Overcast
3:15 PM 68.4 °F 55.4 °F 63% 29.98 in 10.0 mi ESE 3.5 mph - N/A   Overcast
3:55 PM 68.5 °F 56.3 °F 65% 29.97 in 10.0 mi NE 3.5 mph - N/A   Overcast
4:15 PM 68.4 °F 56.1 °F 65% 29.97 in 10.0 mi ENE 3.5 mph - N/A   Overcast
4:35 PM 68.4 °F 57.0 °F 67% 29.97 in 10.0 mi Calm Calm - N/A   Overcast
4:55 PM 68.0 °F 57.4 °F 69% 29.98 in 10.0 mi Calm Calm - N/A   Overcast
5:15 PM 67.6 °F 57.2 °F 69% 29.98 in 10.0 mi Calm Calm - N/A   Overcast
5:35 PM 67.6 °F 57.2 °F 69% 29.98 in 10.0 mi Calm Calm - N/A   Overcast
6:15 PM 67.3 °F 58.1 °F 72% 29.98 in 10.0 mi Calm Calm - N/A   Overcast
6:35 PM 65.1 °F 60.8 °F 86% 29.99 in 10.0 mi Calm Calm - N/A   Overcast
7:15 PM 64.6 °F 62.4 °F 93% 29.98 in 10.0 mi Calm Calm - N/A   Overcast
7:35 PM 63.9 °F - N/A% 29.99 in 10.0 mi Calm Calm - N/A Rain Light Rain
7:55 PM 63.5 °F - N/A% 29.98 in 10.0 mi Calm Calm - N/A   Drizzle
8:15 PM 62.6 °F 61.5 °F 96% 29.99 in 10.0 mi Calm Calm - N/A   Light Drizzle
8:35 PM 62.4 °F - N/A% 29.99 in 10.0 mi Calm Calm - N/A Rain Light Rain
8:55 PM 61.9 °F - N/A% 29.99 in 10.0 mi Calm Calm - N/A   Mostly Cloudy
9:15 PM 62.4 °F - N/A% 29.98 in 10.0 mi Calm Calm - N/A   Overcast
9:35 PM 61.9 °F - N/A% 29.98 in 10.0 mi Calm Calm - N/A   Overcast
9:55 PM 61.7 °F - N/A% 29.99 in 10.0 mi Calm Calm - N/A   Overcast
10:15 PM 62.4 °F - N/A% 29.99 in 10.0 mi Calm Calm - N/A   Overcast
10:35 PM 61.7 °F - N/A% 29.99 in 10.0 mi Calm Calm - N/A   Overcast
10:55 PM 61.7 °F - N/A% 29.98 in 10.0 mi Calm Calm - N/A   Overcast
11:35 PM 61.7 °F - N/A% 29.99 in 10.0 mi Calm Calm - N/A   Overcast
11:55 PM 61.7 °F - N/A% 29.99 in 10.0 mi Calm Calm - N/A   Overcast